FW5278 Weather Reports


time (UTC)temp
C
wind
direction
speed
KPH
gust
KPH
rain 1hr
cm
rain 24hr
cm
rain mn
cm
humidity
%
barometer
mb
20260505212553 17 0 0.0 4.8 0.00 0.00 0.00 74 1016.5
20260505212053 17 304 1.6 6.4 0.00 0.00 0.00 74 1016.6
20260505211606 16 0 0.0 6.4 0.00 0.00 0.00 74 1016.6
20260505211053 16 311 3.2 6.4 0.00 0.00 0.00 74 1016.7
20260505210552 17 293 1.6 4.8 0.00 0.00 0.00 74 1016.7
20260505210054 17 282 0.0 3.2 0.00 0.00 0.00 74 1016.7
20260505205551 16 356 0.0 4.8 0.00 0.00 0.00 75 1016.7
20260505205055 16 303 1.6 4.8 0.00 0.00 0.00 74 1016.8
20260505204557 16 0 0.0 4.8 0.00 0.00 0.00 73 1016.8
20260505204054 17 295 0.0 4.8 0.00 0.00 0.00 73 1016.7
20260505203556 17 314 0.0 4.8 0.00 0.00 0.00 72 1016.8
20260505203058 17 0 0.0 3.2 0.00 0.00 0.00 72 1016.8
20260505202554 17 220 0.0 3.2 0.00 0.00 0.00 72 1016.9
20260505202055 17 255 0.0 3.2 0.00 0.00 0.00 72 1016.8
20260505201559 17 204 0.0 3.2 0.00 0.00 0.00 72 1016.9
20260505201054 17 326 1.6 3.2 0.00 0.00 0.00 72 1017.0
20260505200551 17 121 0.0 3.2 0.00 0.00 0.00 71 1017.0
20260505200054 17 0 0.0 3.2 0.00 0.00 0.00 72 1017.0
20260505195552 17 0 0.0 3.2 0.00 0.00 0.00 72 1016.9
20260505195052 17 124 0.0 4.8 0.00 0.00 0.00 72 1017.0
20260505194609 17 81 0.0 4.8 0.00 0.00 0.00 70 1017.0
20260505194053 17 282 0.0 4.8 0.00 0.00 0.00 71 1016.9
20260505193552 17 0 0.0 4.8 0.00 0.00 0.00 70 1017.0
20260505193054 17 317 1.6 3.2 0.00 0.00 0.00 70 1017.0
20260505192552 17 237 1.6 3.2 0.00 0.00 0.00 69 1017.0
20260505192051 17 333 0.0 1.6 0.00 0.00 0.00 70 1017.0
20260505191554 17 0 0.0 3.2 0.00 0.00 0.00 71 1017.0
20260505191054 17 76 0.0 3.2 0.00 0.00 0.00 73 1017.0
20260505190551 17 72 1.6 3.2 0.00 0.00 0.00 72 1017.0
20260505190057 17 88 0.0 3.2 0.00 0.00 0.00 72 1017.0
20260505185557 17 0 0.0 3.2 0.00 0.00 0.00 72 1017.0
20260505185054 16 0 0.0 3.2 0.00 0.00 0.00 73 1017.1
20260505184553 16 46 0.0 3.2 0.00 0.00 0.00 75 1017.1
20260505184053 16 206 0.0 4.8 0.00 0.00 0.00 74 1017.1
20260505183556 16 325 0.0 4.8 0.00 0.00 0.00 75 1017.2
20260505183055 16 209 1.6 4.8 0.00 0.00 0.00 74 1017.3
20260505182552 16 97 0.0 1.6 0.00 0.00 0.00 74 1017.2
20260505182052 16 0 0.0 4.8 0.00 0.00 0.00 75 1017.2
20260505181558 16 0 0.0 4.8 0.00 0.00 0.00 75 1017.1
20260505181053 15 248 0.0 4.8 0.00 0.00 0.00 75 1017.0
20260505180552 15 309 0.0 3.2 0.00 0.00 0.00 77 1017.1
20260505180054 15 0 0.0 3.2 0.00 0.00 0.00 77 1017.0
20260505175554 15 356 0.0 1.6 0.00 0.00 0.00 77 1017.0
20260505175054 15 289 0.0 1.6 0.00 0.00 0.00 77 1017.1
20260505174557 15 0 0.0 1.6 0.00 0.00 0.00 77 1017.1
20260505174054 15 245 0.0 3.2 0.00 0.00 0.00 77 1017.0
20260505173553 15 243 0.0 4.8 0.00 0.00 0.00 77 1017.0
20260505173057 15 0 0.0 6.4 0.00 0.00 0.00 77 1017.0
20260505172552 15 208 1.6 6.4 0.00 0.00 0.00 77 1017.0
20260505172051 15 0 1.6 6.4 0.00 0.00 0.00 76 1016.9
20260505171601 15 0 0.0 3.2 0.00 0.00 0.00 78 1016.8
20260505171053 15 0 0.0 1.6 0.00 0.00 0.00 78 1016.8
20260505170551 15 0 0.0 3.2 0.00 0.00 0.00 78 1016.8
20260505170055 15 0 0.0 3.2 0.00 0.00 0.00 78 1016.7
20260505165552 15 298 1.6 3.2 0.00 0.00 0.00 77 1016.7
20260505165052 15 315 0.0 4.8 0.00 0.00 0.00 78 1016.7
20260505164617 15 348 0.0 4.8 0.00 0.00 0.00 78 1016.6
20260505164054 15 224 1.6 4.8 0.00 0.00 0.00 77 1016.6
20260505163552 15 259 0.0 3.2 0.00 0.00 0.00 78 1016.7
20260505163102 15 217 0.0 3.2 0.00 0.00 0.00 79 1016.5
20260505162555 14 0 0.0 1.6 0.00 0.00 0.00 79 1016.5
20260505162054 14 0 0.0 1.6 0.00 0.00 0.00 79 1016.5
20260505161613 14 0 0.0 1.6 0.00 0.00 0.00 81 1016.5
20260505161054 14 0 0.0 1.6 0.00 0.00 0.00 82 1016.4
20260505160554 13 0 0.0 1.6 0.00 0.00 0.00 81 1016.5
20260505153055 13 292 1.6 3.2 0.00 0.00 0.00 84 1016.4
20260505152553 13 224 1.6 4.8 0.00 0.00 0.00 84 1016.4
20260505152052 13 228 1.6 4.8 0.00 0.00 0.00 84 1016.4
20260505151555 13 156 0.0 1.6 0.00 0.00 0.00 84 1016.5
20260505151052 13 317 0.0 3.2 0.00 0.00 0.00 84 1016.3
20260505150553 12 216 0.0 4.8 0.00 0.00 0.00 84 1016.3
20260505140553 12 0 0.0 1.6 0.00 0.00 0.00 85 1015.6
20260505130110 12 0 0.0 0.0 0.00 0.00 0.00 84 1015.5
20260505124559 12 0 0.0 1.6 0.00 0.00 0.00 84 1015.4
20260505124053 12 232 0.0 1.6 0.00 0.00 0.00 85 1015.3
20260505123553 12 0 0.0 0.0 0.00 0.00 0.00 84 1015.3
20260505123105 12 0 0.0 0.0 0.00 0.00 0.00 84 1015.4
20260505122552 12 0 0.0 0.0 0.00 0.00 0.00 84 1015.3
20260505122052 12 0 0.0 0.0 0.00 0.00 0.00 84 1015.2
20260505121557 12 0 0.0 0.0 0.00 0.00 0.00 84 1015.3
20260505121056 12 0 0.0 0.0 0.00 0.00 0.00 85 1015.3
20260505120551 12 0 0.0 1.6 0.00 0.00 0.00 84 1015.3
20260505120108 12 0 0.0 1.6 0.00 0.00 0.00 84 1015.3
20260505115551 12 0 0.0 1.6 0.00 0.00 0.00 84 1015.3
20260505115050 12 264 0.0 1.6 0.00 0.00 0.00 84 1015.3
20260505114556 12 0 0.0 1.6 0.00 0.00 0.00 84 1015.4
20260505114051 12 0 0.0 1.6 0.00 0.00 0.00 84 1015.2
20260505113553 12 0 0.0 1.6 0.00 0.00 0.00 84 1015.2
20260505113104 12 0 0.0 1.6 0.00 0.00 0.00 84 1015.1
20260505112557 12 167 0.0 3.2 0.00 0.00 0.00 84 1015.3
20260505112053 12 0 0.0 3.2 0.00 0.00 0.00 84 1015.3
20260505111555 12 342 0.0 1.6 0.00 0.00 0.00 84 1015.3
20260505111055 12 0 0.0 3.2 0.00 0.00 0.00 84 1015.3
20260505110554 12 266 0.0 3.2 0.00 0.00 0.00 84 1015.2
20260505110111 12 0 0.0 1.6 0.00 0.00 0.00 84 1015.1
20260505102051 12 0 0.0 1.6 0.00 0.00 0.00 83 1014.9
20260505101550 12 0 0.0 1.6 0.00 0.00 0.00 83 1014.7
20260505101052 12 0 0.0 1.6 0.00 0.00 0.00 83 1014.9
20260505100557 12 349 0.0 1.6 0.00 0.00 0.00 83 1014.9
20260505100057 12 0 0.0 1.6 0.00 0.00 0.00 83 1014.9
20260505095554 12 0 0.0 1.6 0.00 0.00 0.00 83 1014.9
20260505095050 12 0 0.0 1.6 0.00 0.00 0.00 83 1014.9
20260505094559 12 0 0.0 1.6 0.00 0.00 0.00 82 1014.9
20260505094051 12 0 0.0 1.6 0.00 0.00 0.00 82 1014.8
20260505093551 12 0 0.0 1.6 0.00 0.00 0.00 82 1014.7
20260505093102 13 0 0.0 1.6 0.00 0.00 0.00 82 1014.7
20260505092551 13 68 0.0 1.6 0.00 0.00 0.00 82 1014.6
20260505092053 13 0 0.0 1.6 0.00 0.00 0.00 82 1014.6
20260505091556 13 0 0.0 3.2 0.00 0.00 0.00 82 1014.6
20260505091051 13 0 0.0 3.2 0.00 0.00 0.00 81 1014.5
20260505090553 13 46 0.0 1.6 0.00 0.00 0.00 82 1014.4
20260505090056 13 0 0.0 1.6 0.00 0.00 0.00 81 1014.4
20260505085553 13 0 0.0 1.6 0.00 0.00 0.00 81 1014.3
20260505085051 13 0 0.0 1.6 0.00 0.00 0.00 81 1014.4
20260505084558 13 0 0.0 1.6 0.00 0.00 0.00 81 1014.4
20260505084052 13 0 0.0 1.6 0.00 0.00 0.00 81 1014.4
20260505083550 13 0 0.0 1.6 0.00 0.00 0.00 81 1014.4
20260505083058 13 0 0.0 1.6 0.00 0.00 0.00 80 1014.3
20260505082550 13 0 0.0 1.6 0.00 0.00 0.00 80 1014.3
20260505082050 13 0 0.0 1.6 0.00 0.00 0.00 80 1014.2
20260505081623 13 0 0.0 1.6 0.00 0.00 0.00 80 1014.1
20260505081054 13 0 0.0 1.6 0.00 0.00 0.00 80 1014.1
20260505080556 13 0 0.0 1.6 0.00 0.00 0.00 80 1014.2
20260505080104 13 0 0.0 1.6 0.00 0.00 0.00 80 1014.0
20260505075556 13 0 0.0 1.6 0.00 0.00 0.00 80 1014.1
20260505075053 14 0 0.0 1.6 0.00 0.00 0.00 79 1014.1
20260505074555 14 0 0.0 1.6 0.00 0.00 0.00 79 1014.1
20260505074053 14 274 0.0 1.6 0.00 0.00 0.00 79 1014.0
20260505073553 14 0 0.0 1.6 0.00 0.00 0.00 79 1013.8
20260505073055 14 0 0.0 1.6 0.00 0.00 0.00 79 1013.8
20260505072552 14 0 0.0 1.6 0.00 0.00 0.00 78 1013.6
20260505072055 15 0 0.0 3.2 0.00 0.00 0.00 78 1013.7
20260505071600 15 0 0.0 4.8 0.00 0.00 0.00 78 1013.5
20260505071050 15 214 1.6 4.8 0.00 0.00 0.00 78 1013.4
20260505070554 15 307 1.6 4.8 0.00 0.00 0.00 78 1013.4
20260505070105 15 238 0.0 4.8 0.00 0.00 0.00 78 1013.4
20260505065553 15 318 0.0 4.8 0.00 0.00 0.00 79 1013.3
20260505065053 15 209 0.0 4.8 0.00 0.00 0.00 79 1013.3
20260505064559 15 240 1.6 4.8 0.00 0.00 0.00 79 1013.1
20260505064054 15 219 0.0 1.6 0.00 0.00 0.00 79 1013.1
20260505063553 15 0 0.0 0.0 0.00 0.00 0.00 80 1013.0
20260505063057 15 0 0.0 0.0 0.00 0.00 0.00 79 1012.9
20260505062553 15 0 0.0 0.0 0.00 0.00 0.00 78 1013.0
20260505062054 15 0 0.0 0.0 0.00 0.00 0.00 78 1012.9
20260505061600 15 0 0.0 1.6 0.00 0.00 0.00 78 1012.7
20260505061055 15 0 0.0 1.6 0.00 0.00 0.00 77 1012.7
20260505060553 16 312 0.0 1.6 0.00 0.00 0.00 77 1012.6
20260505060058 16 0 0.0 1.6 0.00 0.00 0.00 76 1012.6
20260505055553 16 0 0.0 4.8 0.00 0.00 0.00 76 1012.7
20260505055053 16 312 0.0 4.8 0.00 0.00 0.00 76 1012.6
20260505054559 16 301 0.0 3.2 0.00 0.00 0.00 75 1012.5
20260505054055 16 297 0.0 3.2 0.00 0.00 0.00 75 1012.6
20260505053552 16 0 1.6 3.2 0.00 0.00 0.00 74 1012.5
20260505053103 17 0 0.0 3.2 0.00 0.00 0.00 74 1012.5
20260505052552 17 309 0.0 3.2 0.00 0.00 0.00 73 1012.4
20260505052056 17 303 0.0 3.2 0.00 0.00 0.00 73 1012.4
20260505051553 17 0 0.0 3.2 0.00 0.00 0.00 72 1012.4
20260505051053 17 287 0.0 1.6 0.00 0.00 0.00 72 1012.4
20260505050552 17 0 0.0 4.8 0.00 0.00 0.00 71 1012.3
20260505041555 19 304 1.6 6.4 0.00 0.00 0.00 69 1011.6
20260505041053 19 0 0.0 6.4 0.00 0.00 0.00 69 1011.6
20260505040554 19 210 0.0 6.4 0.00 0.00 0.00 70 1011.5
20260505040105 20 215 1.6 6.4 0.00 0.00 0.00 70 1011.4
20260505035553 20 186 0.0 3.2 0.00 0.00 0.00 71 1011.2
20260505035053 20 181 0.0 3.2 0.00 0.00 0.00 71 1011.3
20260505034555 20 0 0.0 1.6 0.00 0.00 0.00 71 1011.2
20260505034053 20 0 0.0 3.2 0.00 0.00 0.00 71 1011.0
20260505033553 20 172 0.0 3.2 0.00 0.00 0.00 71 1010.9
20260505033055 20 55 0.0 3.2 0.00 0.00 0.00 71 1010.9
20260505032552 20 319 0.0 4.8 0.00 0.00 0.00 71 1010.7
20260505032052 20 309 0.0 4.8 0.00 0.00 0.00 70 1010.7
20260505031600 21 164 0.0 1.6 0.00 0.00 0.00 70 1010.7
20260505031052 21 0 0.0 1.6 0.00 0.00 0.00 69 1010.6
20260505030554 21 0 0.0 3.2 0.00 0.00 0.00 69 1010.6
20260505030105 21 0 0.0 3.2 0.00 0.00 0.00 68 1010.6
20260505025553 21 288 0.0 1.6 0.00 0.00 0.00 67 1010.4
20260505025054 22 0 0.0 4.8 0.00 0.00 0.00 67 1010.4
20260505024555 22 0 0.0 4.8 0.00 0.00 0.00 66 1010.3
20260505024053 22 0 0.0 4.8 0.00 0.00 0.00 65 1010.3
20260505023552 22 245 0.0 4.8 0.00 0.00 0.00 65 1010.4
20260505023102 22 0 0.0 3.2 0.00 0.00 0.00 64 1010.3
20260505022553 23 9 0.0 3.2 0.00 0.00 0.00 63 1010.3
20260505022052 23 330 0.0 3.2 0.00 0.00 0.00 62 1010.3
20260505021557 23 115 0.0 3.2 0.00 0.00 0.00 62 1010.3
20260505021053 23 0 0.0 4.8 0.00 0.00 0.00 63 1010.3
20260505020552 23 0 0.0 4.8 0.00 0.00 0.00 63 1010.3
20260505020056 23 65 1.6 4.8 0.00 0.00 0.00 63 1010.3
20260505015553 23 60 0.0 4.8 0.00 0.00 0.00 63 1010.2
20260505015055 23 311 1.6 4.8 0.00 0.00 0.00 63 1010.2
20260505014553 23 2 1.6 4.8 0.00 0.00 0.00 63 1010.3
20260505014052 23 63 0.0 4.8 0.00 0.00 0.00 63 1010.3
20260505013552 23 107 1.6 4.8 0.00 0.00 0.00 62 1010.5
20260505013055 23 285 0.0 4.8 0.00 0.00 0.00 62 1010.4
20260505012552 23 340 1.6 6.4 0.00 0.00 0.00 61 1010.5
20260505012055 23 246 0.0 6.4 0.00 0.00 0.00 61 1010.4
20260505011556 23 281 3.2 6.4 0.00 0.00 0.00 61 1010.6
20260505011055 23 67 0.0 4.8 0.00 0.00 0.00 60 1010.5
20260505010552 24 0 0.0 6.4 0.00 0.00 0.00 60 1010.4
20260505010104 24 313 1.6 6.4 0.00 0.00 0.00 59 1010.6
20260505005553 24 117 0.0 3.2 0.00 0.00 0.00 60 1010.7
20260505005052 24 285 1.6 6.4 0.00 0.00 0.00 60 1010.6
20260505004552 23 80 1.6 6.4 0.00 0.00 0.00 60 1010.7
20260505004051 24 107 1.6 6.4 0.00 0.00 0.00 58 1010.8
20260505003555 24 330 3.2 6.4 0.00 0.00 0.00 59 1010.7
20260505003057 24 28 1.6 4.8 0.00 0.00 0.00 61 1010.7
20260505002552 24 65 1.6 4.8 0.00 0.00 0.00 60 1010.7
20260505002052 24 74 1.6 9.7 0.00 0.00 0.00 59 1010.7
20260505001554 24 185 1.6 9.7 0.00 0.00 0.00 58 1010.8
20260505001053 24 160 3.2 9.7 0.00 0.00 0.00 59 1010.8
20260505000552 24 31 3.2 6.4 0.00 0.00 0.00 59 1010.9
20260505000105 24 76 3.2 6.4 0.00 0.00 0.00 59 1010.9
20260504235552 24 227 1.6 4.8 0.00 0.00 0.00 58 1010.8
20260504235052 24 330 1.6 6.4 0.00 0.00 0.00 58 1010.9
20260504234558 24 63 1.6 11.3 0.00 0.00 0.00 57 1011.0
20260504234055 24 139 1.6 11.3 0.00 0.00 0.00 57 1010.8
20260504233553 24 181 3.2 8.0 0.00 0.00 0.00 56 1010.8
20260504233054 24 66 1.6 8.0 0.00 0.00 0.00 57 1010.8
20260504232553 24 151 1.6 6.4 0.00 0.00 0.00 57 1011.0
20260504232053 24 131 1.6 6.4 0.00 0.00 0.00 57 1011.1
20260504231555 24 76 1.6 6.4 0.00 0.00 0.00 57 1011.1
20260504231052 24 309 1.6 6.4 0.00 0.00 0.00 56 1011.2
20260504230551 23 345 1.6 6.4 0.00 0.00 0.00 58 1011.2
20260504230056 24 79 1.6 6.4 0.00 0.00 0.00 57 1011.2
20260504225553 23 150 1.6 9.7 0.00 0.00 0.00 57 1011.4
20260504225055 23 53 0.0 9.7 0.00 0.00 0.00 58 1011.3
20260504224601 23 360 1.6 9.7 0.00 0.00 0.00 57 1011.4
20260504224051 23 75 1.6 6.4 0.00 0.00 0.00 57 1011.4
20260504223552 23 188 1.6 8.0 0.00 0.00 0.00 57 1011.5
20260504223058 23 120 1.6 8.0 0.00 0.00 0.00 58 1011.6
20260504222552 23 67 1.6 6.4 0.00 0.00 0.00 59 1011.7
20260504222051 23 141 1.6 8.0 0.00 0.00 0.00 58 1011.7
20260504221556 23 256 1.6 8.0 0.00 0.00 0.00 58 1011.8
20260504221051 22 215 1.6 6.4 0.00 0.00 0.00 60 1011.9
20260504220552 22 331 1.6 6.4 0.00 0.00 0.00 59 1011.8
20260504220118 22 45 3.2 8.0 0.00 0.00 0.00 60 1011.9
20260504215552 22 326 1.6 8.0 0.00 0.00 0.00 59 1012.1
20260504215052 22 152 3.2 8.0 0.00 0.00 0.00 59 1012.0
20260504214558 22 260 1.6 6.4 0.00 0.00 0.00 60 1012.0
20260504214051 21 20 1.6 6.4 0.00 0.00 0.00 62 1012.1
20260504213552 21 69 3.2 6.4 0.00 0.00 0.00 61 1012.1
20260504213100 21 82 1.6 6.4 0.00 0.00 0.00 63 1012.3